TimeEST,TemperatureF,Dew PointF,Humidity,Sea Level PressureIn,VisibilityMPH,Wind Direction,Wind SpeedMPH,Gust SpeedMPH,PrecipitationIn,Events,Conditions,WindDirDegrees,DateUTC
12:54 AM,34.0,25.0,70,29.66,10.0,NNW,3.5,-,N/A,,Overcast,340,2013-03-03 05:54:00
1:03 AM,33.8,24.8,70,29.65,10.0,WNW,6.9,-,N/A,,Overcast,300,2013-03-03 06:03:00
1:34 AM,33.8,24.8,70,29.65,10.0,NW,5.8,-,N/A,,Overcast,320,2013-03-03 06:34:00
1:54 AM,34.0,25.0,70,29.65,10.0,NW,3.5,-,N/A,,Overcast,310,2013-03-03 06:54:00
2:54 AM,33.1,25.0,72,29.64,10.0,NW,4.6,-,N/A,,Overcast,320,2013-03-03 07:54:00
3:54 AM,33.1,25.0,72,29.64,10.0,NW,5.8,-,N/A,,Overcast,320,2013-03-03 08:54:00
4:54 AM,32.0,25.0,75,29.64,9.0,WNW,5.8,-,0.00,,Overcast,300,2013-03-03 09:54:00
5:54 AM,32.0,24.1,73,29.64,9.0,NW,6.9,-,0.00,,Overcast,320,2013-03-03 10:54:00
6:54 AM,32.0,25.0,75,29.65,5.0,WNW,6.9,-,0.00,Snow,Light Snow,290,2013-03-03 11:54:00
7:01 AM,32.0,24.8,75,29.65,5.0,Variable,5.8,-,0.00,Snow,Light Snow,0,2013-03-03 12:01:00
7:39 AM,32.0,24.8,75,29.65,10.0,WNW,8.1,-,0.00,,Overcast,300,2013-03-03 12:39:00
7:54 AM,32.0,25.0,75,29.66,10.0,NW,6.9,-,0.00,,Overcast,310,2013-03-03 12:54:00
8:37 AM,32.0,24.8,75,29.64,7.0,WNW,5.8,-,0.00,Snow,Light Snow,300,2013-03-03 13:37:00
8:50 AM,32.0,26.6,80,29.64,2.0,NW,6.9,-,0.00,Snow,Light Snow,310,2013-03-03 13:50:00
8:54 AM,32.0,26.1,79,29.65,2.0,NW,6.9,-,0.00,Snow,Light Snow,310,2013-03-03 13:54:00
9:03 AM,32.0,26.6,80,29.64,1.8,NW,6.9,-,0.00,Snow,Light Snow,310,2013-03-03 14:03:00
9:12 AM,32.0,26.6,80,29.64,2.5,WNW,5.8,-,0.00,Snow,Light Snow,290,2013-03-03 14:12:00
9:18 AM,32.0,26.6,80,29.64,3.0,WNW,6.9,-,0.00,Snow,Light Snow,290,2013-03-03 14:18:00
9:25 AM,32.0,26.6,80,29.64,3.0,WNW,8.1,-,0.00,Snow,Light Snow,290,2013-03-03 14:25:00
9:47 AM,33.8,28.4,81,29.64,4.0,WNW,5.8,-,0.00,Snow,Light Snow,290,2013-03-03 14:47:00
9:54 AM,33.1,28.0,82,29.64,4.0,WNW,5.8,-,0.00,Snow,Light Snow,290,2013-03-03 14:54:00
10:01 AM,33.8,28.4,81,29.63,3.0,WNW,6.9,-,0.00,Snow,Light Snow,290,2013-03-03 15:01:00
10:30 AM,35.6,28.4,75,29.62,6.0,NW,5.8,-,0.00,Snow,Light Snow,310,2013-03-03 15:30:00
10:41 AM,35.6,30.2,81,29.62,7.0,West,5.8,-,0.00,Snow,Light Snow,280,2013-03-03 15:41:00
10:54 AM,36.0,28.9,76,29.63,8.0,NW,5.8,-,0.00,Snow,Light Snow,320,2013-03-03 15:54:00
11:54 AM,37.9,30.0,73,29.62,9.0,NNW,5.8,-,0.00,Snow,Light Snow,330,2013-03-03 16:54:00
12:54 PM,39.0,30.0,70,29.60,10.0,West,5.8,-,0.00,,Overcast,280,2013-03-03 17:54:00
1:46 PM,39.2,30.2,70,29.58,10.0,West,6.9,-,N/A,,Overcast,280,2013-03-03 18:46:00
1:54 PM,39.0,30.0,70,29.59,10.0,WNW,4.6,-,N/A,,Overcast,290,2013-03-03 18:54:00
2:54 PM,39.0,32.0,76,29.58,10.0,WNW,5.8,-,0.00,Rain,Light Rain,300,2013-03-03 19:54:00
3:01 PM,39.2,32.0,75,29.58,10.0,WNW,5.8,-,0.00,Rain,Light Rain,300,2013-03-03 20:01:00
3:54 PM,39.9,30.9,70,29.58,10.0,West,8.1,-,0.00,,Overcast,280,2013-03-03 20:54:00
4:41 PM,39.2,28.4,65,29.58,10.0,West,3.5,-,N/A,,Overcast,280,2013-03-03 21:41:00
4:54 PM,39.9,28.9,65,29.58,10.0,West,6.9,-,N/A,,Overcast,280,2013-03-03 21:54:00
5:32 PM,39.2,26.6,61,29.59,10.0,WNW,8.1,-,N/A,,Overcast,290,2013-03-03 22:32:00
5:54 PM,39.0,26.1,60,29.60,10.0,NW,10.4,-,N/A,,Overcast,310,2013-03-03 22:54:00
6:54 PM,37.9,26.1,62,29.60,10.0,WNW,6.9,-,0.00,,Overcast,300,2013-03-03 23:54:00
7:54 PM,37.9,26.1,62,29.61,10.0,WNW,8.1,-,N/A,,Overcast,300,2013-03-04 00:54:00
8:54 PM,36.0,26.1,67,29.62,10.0,NW,5.8,18.4,N/A,,Overcast,320,2013-03-04 01:54:00
9:54 PM,36.0,25.0,64,29.61,10.0,WNW,8.1,-,N/A,,Overcast,300,2013-03-04 02:54:00
10:54 PM,36.0,24.1,62,29.61,10.0,Variable,5.8,-,N/A,,Overcast,0,2013-03-04 03:54:00
11:54 PM,35.1,23.0,61,29.60,10.0,WNW,9.2,21.9,N/A,,Overcast,300,2013-03-04 04:54:00